This is the latest recevied weather packets stored in our database for station/object K8BCO. If no packets are shown the sender has not sent any weather packets the latest 10 day(s).
| Time | Temp. | Humidity | Pressure | Rain* | Wind** | Luminosity | Snow |
|---|---|---|---|---|---|---|---|
| 1777853118 | 14.44° C | 32% | 1001.2 hPa | 0 mm | - | 41 W/m² | - |
| 1777852518 | 15° C | 31% | 1001.2 hPa | 0 mm | - | 49 W/m² | - |
| 1777851917 | 15° C | 31% | 1001.2 hPa | 0 mm | - | 72 W/m² | - |
| 1777851318 | 15.56° C | 32% | 1001.2 hPa | 0 mm | - | 97 W/m² | - |
| 1777850717 | 15.56° C | 34% | 1001.2 hPa | 0 mm | - | 110 W/m² | - |
| 1777850118 | 16.11° C | 38% | 1001 hPa | 0 mm | - | 145 W/m² | - |
| 1777849516 | 16.11° C | 41% | 1000.9 hPa | 0 mm | - | 230 W/m² | - |
| 1777848917 | 16.11° C | 43% | 1000.8 hPa | 0 mm | - | 262 W/m² | - |
| 1777848316 | 15.56° C | 51% | 1001 hPa | 0 mm | - | 224 W/m² | - |
| 1777847716 | 15° C | 52% | 1000.9 hPa | 0 mm | - | 252 W/m² | - |
| 1777847117 | 15.56° C | 52% | 1000.8 hPa | 0 mm | - | 208 W/m² | - |
| 1777846517 | 15.56° C | 53% | 1000.5 hPa | 0 mm | - | 380 W/m² | - |
| 1777845917 | 15.56° C | 53% | 1000.6 hPa | 0 mm | - | 344 W/m² | - |
| 1777845317 | 15.56° C | 53% | 1000.5 hPa | 0 mm | - | 355 W/m² | - |
| 1777844718 | 15° C | 54% | 1000.4 hPa | 0 mm | - | 388 W/m² | - |
| 1777844118 | 14.44° C | 56% | 1000.4 hPa | 0 mm | - | 370 W/m² | - |
| 1777843518 | 14.44° C | 56% | 1000.4 hPa | 0 mm | - | 298 W/m² | - |
| 1777842918 | 15° C | 55% | 1000.3 hPa | 0 mm | - | 452 W/m² | - |
| 1777842319 | 15.56° C | 53% | 1000.1 hPa | 0 mm | - | 537 W/m² | - |
| 1777841718 | 15° C | 54% | 1000 hPa | 0 mm | - | 544 W/m² | - |
| 1777841115 | 14.44° C | 57% | 1000.1 hPa | 0 mm | - | 269 W/m² | - |
| 1777840517 | 15° C | 56% | 1000.2 hPa | 0 mm | - | 421 W/m² | - |
| 1777839915 | 15° C | 55% | 1000.2 hPa | 0 mm | - | 274 W/m² | - |
| 1777839316 | 15.56° C | 53% | 1000.3 hPa | 0 mm | - | 273 W/m² | - |
| 1777838716 | 15.56° C | 54% | 1000.4 hPa | 0 mm | - | 465 W/m² | - |
* Rain latest hour (hover to see other rain measurements)
** Current wind speed in m/s (hover to see current wind gust speed)